When you browse on this site, cookies collect data to enhance your experience and personalize the content and advertising you see.
Visit our Privacy Policy to learn more. By continuing to use the site, you agree to this use of cookies and data.
  • In Switzerland
  • List of Countries
  • For 7 days
  • Water Temperature
  • Satellite Maps
  • Weather Map
  • Weather Widgets
  • user-avatar
    Login

    Hourly Weather Lankaran

    Today, 22 March, Friday

    Time Temperature Precipitation Wind Pressure Humidity
    00:00 -2°C° 0 mm 2 mps 633 mmHg 67%
    01:00 -2°C° 0 mm 2 mps 633 mmHg 63%
    02:00 -2°C° 0 mm 2 mps 633 mmHg 59%
    03:00 -2°C° 0 mm 2 mps 633 mmHg 55%
    04:00 -2°C° 0 mm 2 mps 633 mmHg 54%
    05:00 -2°C° 0 mm 2 mps 633 mmHg 53%
    06:00 -2°C° 0 mm 2 mps 633 mmHg 51%
    07:00 +2°C° 0 mm 1 mps 634 mmHg 49%
    08:00 +3°C° 0 mm 1 mps 634 mmHg 48%
    09:00 +4°C° 0 mm 0 mps 635 mmHg 46%
    10:00 +6°C° 0 mm 1 mps 635 mmHg 47%
    11:00 +6°C° 0 mm 1 mps 635 mmHg 48%
    12:00 +6°C° 0 mm 2 mps 635 mmHg 49%
    13:00 +6°C° 0 mm 2 mps 634 mmHg 50%
    14:00 +6°C° 0 mm 2 mps 634 mmHg 51%
    15:00 +6°C° 0 mm 2 mps 634 mmHg 53%
    16:00 +5°C° 0 mm 2 mps 633 mmHg 58%
    17:00 +5°C° 0 mm 1 mps 633 mmHg 62%
    18:00 +4°C° 0 mm 1 mps 632 mmHg 67%
    19:00 +4°C° 0 mm 1 mps 632 mmHg 68%
    20:00 +3°C° 0 mm 1 mps 632 mmHg 68%
    21:00 +3°C° 0 mm 1 mps 632 mmHg 69%
    22:00 +3°C° 0 mm 1 mps 632 mmHg 68%
    23:00 +3°C° 0 mm 1 mps 632 mmHg 68%

    Tomorrow, 23 March, Saturday

    Time Temperature Precipitation Wind Pressure Humidity
    00:00 +2°C° 0 mm 1 mps 632 mmHg 68%
    01:00 +2°C° 0 mm 1 mps 632 mmHg 71%
    02:00 +2°C° 0 mm 1 mps 632 mmHg 73%
    03:00 0°C° 0 mm 0 mps 631 mmHg 76%
    04:00 0°C° 0 mm 0 mps 631 mmHg 79%
    05:00 0°C° 0 mm 0 mps 631 mmHg 82%
    06:00 0°C° 0 mm 0 mps 631 mmHg 85%
    07:00 +2°C° 0 mm 1 mps 632 mmHg 77%
    08:00 +4°C° 0 mm 1 mps 632 mmHg 70%
    09:00 +5°C° 0 mm 2 mps 633 mmHg 62%
    10:00 +6°C° 0 mm 2 mps 633 mmHg 58%
    11:00 +7°C° 0 mm 2 mps 632 mmHg 54%
    12:00 +8°C° 0 mm 3 mps 632 mmHg 50%
    13:00 +8°C° 0 mm 3 mps 632 mmHg 49%
    14:00 +8°C° 0 mm 3 mps 631 mmHg 49%
    15:00 +8°C° 0 mm 3 mps 631 mmHg 48%
    16:00 +7°C° 0 mm 2 mps 630 mmHg 53%
    17:00 +6°C° 0 mm 2 mps 630 mmHg 57%
    18:00 +6°C° 0 mm 1 mps 629 mmHg 62%
    19:00 +6°C° 0 mm 1 mps 629 mmHg 61%
    20:00 +5°C° 0 mm 1 mps 630 mmHg 59%
    21:00 +5°C° 0 mm 1 mps 630 mmHg 57%
    22:00 +5°C° 0 mm 1 mps 630 mmHg 56%
    23:00 +5°C° 0 mm 1 mps 629 mmHg 56%

    Day after tomorrow, 24 March, Sunday

    Time Temperature Precipitation Wind Pressure Humidity
    00:00 +4°C° 0 mm 2 mps 629 mmHg 55%
    01:00 +4°C° 0 mm 2 mps 629 mmHg 57%
    02:00 +4°C° 0 mm 2 mps 629 mmHg 59%
    03:00 +4°C° 0 mm 2 mps 629 mmHg 60%
    04:00 +3°C° 0 mm 2 mps 628 mmHg 62%
    05:00 +3°C° 0 mm 2 mps 628 mmHg 63%
    06:00 +3°C° 0 mm 2 mps 628 mmHg 64%
    07:00 +3°C° 0 mm 3 mps 629 mmHg 59%
    08:00 +5°C° 0 mm 3 mps 629 mmHg 54%
    09:00 +8°C° 0 mm 3 mps 630 mmHg 48%
    10:00 +8°C° 0 mm 3 mps 630 mmHg 47%
    11:00 +9°C° 0 mm 3 mps 630 mmHg 47%
    12:00 +10°C° 0 mm 4 mps 630 mmHg 46%
    13:00 +8°C° 0 mm 4 mps 629 mmHg 51%
    14:00 +7°C° 0 mm 4 mps 628 mmHg 55%
    15:00 +7°C° 0 mm 4 mps 628 mmHg 60%
    16:00 +5°C° 0 mm 4 mps 627 mmHg 69%
    17:00 +4°C° 0 mm 4 mps 627 mmHg 78%
    18:00 +1°C° 0 mm 4 mps 627 mmHg 86%
    19:00 +1°C° 0.5 mm 4 mps 627 mmHg 88%
    20:00 0°C° 0.5 mm 4 mps 627 mmHg 90%
    21:00 +1°C° 0.5 mm 3 mps 627 mmHg 92%
    22:00 0°C° 0.7 mm 3 mps 627 mmHg 92%
    23:00 0°C° 0.7 mm 3 mps 627 mmHg 93%

    25 March, Monday

    Time Temperature Precipitation Wind Pressure Humidity
    00:00 0°C° 0.7 mm 3 mps 627 mmHg 93%
    01:00 0°C° 0.1 mm 3 mps 627 mmHg 93%
    02:00 0°C° 0.1 mm 3 mps 628 mmHg 93%
    03:00 0°C° 0.1 mm 3 mps 628 mmHg 94%
    04:00 -1°C° 0.1 mm 3 mps 628 mmHg 94%
    05:00 -1°C° 0.1 mm 3 mps 628 mmHg 93%
    06:00 -1°C° 0.1 mm 3 mps 628 mmHg 93%
    07:00 -1°C° 0 mm 3 mps 628 mmHg 91%
    08:00 -2°C° 0 mm 4 mps 629 mmHg 89%
    09:00 -2°C° 0 mm 4 mps 629 mmHg 88%
    10:00 -2°C° 0 mm 4 mps 629 mmHg 86%
    11:00 -1°C° 0 mm 4 mps 629 mmHg 85%
    12:00 -1°C° 0 mm 4 mps 629 mmHg 84%
    13:00 -1°C° 0.1 mm 4 mps 628 mmHg 85%
    14:00 -2°C° 0.1 mm 4 mps 628 mmHg 86%
    15:00 -1°C° 0.1 mm 3 mps 627 mmHg 87%
    16:00 -1°C° 0.9 mm 3 mps 627 mmHg 88%
    17:00 -2°C° 0.9 mm 3 mps 627 mmHg 89%
    18:00 -2°C° 0.9 mm 3 mps 627 mmHg 90%
    19:00 -2°C° 1.2 mm 3 mps 627 mmHg 91%
    20:00 -4°C° 1.2 mm 3 mps 627 mmHg 92%
    21:00 -4°C° 1.2 mm 3 mps 627 mmHg 93%
    22:00 -4°C° 1.6 mm 3 mps 627 mmHg 93%
    23:00 -4°C° 1.6 mm 3 mps 627 mmHg 93%

    26 March, Tuesday

    Time Temperature Precipitation Wind Pressure Humidity
    00:00 -4°C° 1.6 mm 3 mps 627 mmHg 93%
    01:00 -4°C° 0.3 mm 3 mps 627 mmHg 93%
    02:00 -4°C° 0.3 mm 3 mps 627 mmHg 94%
    03:00 -4°C° 0.3 mm 3 mps 627 mmHg 94%
    04:00 -4°C° 0.5 mm 3 mps 627 mmHg 94%
    05:00 -4°C° 0.5 mm 3 mps 627 mmHg 93%
    06:00 -5°C° 0.5 mm 3 mps 628 mmHg 93%
    07:00 -4°C° 0.2 mm 3 mps 628 mmHg 92%
    08:00 -4°C° 0.2 mm 3 mps 628 mmHg 91%
    09:00 -4°C° 0.2 mm 3 mps 629 mmHg 91%
    10:00 -4°C° 0.2 mm 3 mps 629 mmHg 90%
    11:00 -3°C° 0.2 mm 4 mps 629 mmHg 90%
    12:00 -3°C° 0.2 mm 4 mps 629 mmHg 89%
    13:00 -3°C° 0.2 mm 4 mps 628 mmHg 89%
    14:00 -3°C° 0.2 mm 4 mps 628 mmHg 89%
    15:00 -3°C° 0.2 mm 4 mps 628 mmHg 89%
    16:00 -2°C° 0.1 mm 3 mps 629 mmHg 89%
    17:00 -2°C° 0.1 mm 3 mps 629 mmHg 90%
    18:00 -4°C° 0.1 mm 3 mps 629 mmHg 91%
    19:00 -3°C° 0.1 mm 2 mps 630 mmHg 91%
    20:00 -3°C° 0.1 mm 2 mps 630 mmHg 91%
    21:00 -1°C° 0.1 mm 1 mps 631 mmHg 91%
    22:00 -1°C° 0 mm 1 mps 630 mmHg 90%
    23:00 -2°C° 0 mm 1 mps 630 mmHg 89%

    27 March, Wednesday

    Time Temperature Precipitation Wind Pressure Humidity
    00:00 -2°C° 0 mm 1 mps 630 mmHg 89%
    01:00 -2°C° 0 mm 1 mps 630 mmHg 86%
    02:00 -2°C° 0 mm 1 mps 630 mmHg 83%
    03:00 -3°C° 0 mm 1 mps 630 mmHg 81%
    04:00 -2°C° 0 mm 1 mps 630 mmHg 80%
    05:00 -2°C° 0 mm 1 mps 631 mmHg 79%
    06:00 -2°C° 0 mm 1 mps 631 mmHg 78%
    07:00 0°C° 0 mm 1 mps 632 mmHg 79%
    08:00 -1°C° 0 mm 2 mps 632 mmHg 81%
    09:00 +2°C° 0 mm 2 mps 633 mmHg 82%
    10:00 +3°C° 0 mm 2 mps 633 mmHg 81%
    11:00 +3°C° 0 mm 2 mps 633 mmHg 79%
    12:00 +4°C° 0 mm 2 mps 633 mmHg 78%
    13:00 +4°C° 0 mm 2 mps 633 mmHg 77%
    14:00 +5°C° 0 mm 2 mps 632 mmHg 76%
    15:00 +5°C° 0 mm 2 mps 632 mmHg 75%
    16:00 +4°C° 0 mm 2 mps 632 mmHg 79%
    17:00 +3°C° 0 mm 2 mps 632 mmHg 82%
    18:00 +2°C° 0 mm 2 mps 632 mmHg 85%
    19:00 +3°C° 0 mm 1 mps 632 mmHg 85%
    20:00 +3°C° 0 mm 1 mps 632 mmHg 85%
    21:00 +3°C° 0 mm 1 mps 632 mmHg 85%
    22:00 +3°C° 0.1 mm 1 mps 631 mmHg 85%
    23:00 +3°C° 0.1 mm 1 mps 631 mmHg 85%
    Show more